| time (UTC) | temp F | wind direction | speed knots | gust knots | rain 1hr in | rain 24hr in | rain mn in | humidity % | barometer mb |
| 20260508063022 | 44 | 227 | 0.0 | 0.0 | 0.00 | 0.01 | 0.00 | 82 | 1016.1 |
| 20260508062521 | 45 | 227 | 0.0 | 0.0 | 0.00 | 0.01 | 0.00 | 81 | 1016.1 |
| 20260508062022 | 45 | 227 | 0.0 | 0.0 | 0.00 | 0.01 | 0.00 | 80 | 1016.1 |
| 20260508061521 | 45 | 227 | 0.0 | 0.0 | 0.00 | 0.01 | 0.00 | 79 | 1016.0 |
| 20260508060523 | 46 | 210 | 0.0 | 2.6 | 0.00 | 0.01 | 0.00 | 78 | 1016.1 |
| 20260508060021 | 46 | 255 | 0.0 | 0.9 | 0.00 | 0.01 | 0.00 | 80 | 1016.2 |
| 20260508055522 | 46 | 250 | 0.9 | 2.6 | 0.00 | 0.01 | 0.00 | 79 | 1016.1 |
| 20260508055022 | 46 | 311 | 0.0 | 0.0 | 0.00 | 0.01 | 0.00 | 78 | 1016.1 |
| 20260508054521 | 46 | 313 | 0.0 | 0.0 | 0.00 | 0.01 | 0.00 | 79 | 1016.0 |
| 20260508054022 | 46 | 313 | 0.0 | 0.0 | 0.00 | 0.01 | 0.00 | 80 | 1015.9 |
| 20260508053022 | 46 | 313 | 0.0 | 0.0 | 0.00 | 0.02 | 0.00 | 81 | 1015.8 |
| 20260508052521 | 46 | 313 | 0.0 | 0.0 | 0.00 | 0.02 | 0.00 | 81 | 1015.7 |
| 20260508052022 | 46 | 312 | 0.0 | 0.0 | 0.00 | 0.02 | 0.00 | 81 | 1015.7 |
| 20260508051522 | 46 | 312 | 0.0 | 0.0 | 0.00 | 0.02 | 0.00 | 80 | 1015.6 |
| 20260508051021 | 46 | 312 | 0.0 | 0.0 | 0.00 | 0.02 | 0.00 | 79 | 1015.6 |
| 20260508050522 | 46 | 312 | 0.0 | 0.0 | 0.00 | 0.02 | 0.00 | 80 | 1015.5 |
| 20260508050021 | 47 | 312 | 0.0 | 0.0 | 0.00 | 0.02 | 0.00 | 80 | 1015.4 |
| 20260508045523 | 47 | 312 | 0.0 | 0.9 | 0.00 | 0.02 | 0.00 | 80 | 1015.4 |
| 20260508044521 | 47 | 317 | 0.0 | 0.0 | 0.00 | 0.02 | 0.00 | 78 | 1015.2 |
| 20260508044022 | 47 | 317 | 0.0 | 0.0 | 0.00 | 0.02 | 0.00 | 79 | 1015.2 |
| 20260508043521 | 48 | 317 | 0.0 | 0.0 | 0.00 | 0.02 | 0.00 | 78 | 1015.1 |
| 20260508043021 | 48 | 317 | 0.0 | 0.0 | 0.00 | 0.02 | 0.00 | 78 | 1015.1 |
| 20260508042522 | 47 | 319 | 0.0 | 0.0 | 0.00 | 0.02 | 0.00 | 79 | 1015.1 |
| 20260508042021 | 48 | 4 | 0.0 | 0.0 | 0.00 | 0.02 | 0.00 | 78 | 1015.0 |
| 20260508041022 | 48 | 4 | 0.0 | 0.0 | 0.00 | 0.02 | 0.00 | 78 | 1015.0 |
| 20260508040522 | 48 | 4 | 0.0 | 0.0 | 0.00 | 0.02 | 0.00 | 79 | 1015.0 |
| 20260508040022 | 48 | 4 | 0.0 | 0.0 | 0.00 | 0.02 | 0.00 | 78 | 1014.8 |
| 20260508035522 | 48 | 4 | 0.0 | 0.0 | 0.00 | 0.02 | 0.02 | 78 | 1014.8 |
| 20260508035022 | 48 | 3 | 0.0 | 0.0 | 0.00 | 0.02 | 0.02 | 78 | 1014.6 |
| 20260508034521 | 48 | 4 | 0.0 | 0.0 | 0.00 | 0.02 | 0.02 | 78 | 1014.6 |
| 20260508034021 | 48 | 4 | 0.0 | 0.0 | 0.00 | 0.02 | 0.02 | 77 | 1014.7 |
| 20260508033021 | 49 | 4 | 0.0 | 0.0 | 0.00 | 0.02 | 0.02 | 76 | 1014.7 |
| 20260508032521 | 49 | 4 | 0.0 | 0.0 | 0.00 | 0.02 | 0.02 | 76 | 1014.7 |
| 20260508032022 | 49 | 4 | 0.0 | 0.0 | 0.00 | 0.02 | 0.02 | 76 | 1014.6 |
| 20260508031521 | 49 | 6 | 0.0 | 0.0 | 0.00 | 0.02 | 0.02 | 76 | 1014.6 |
| 20260508031021 | 49 | 6 | 0.0 | 0.9 | 0.00 | 0.02 | 0.02 | 77 | 1014.5 |
| 20260508030522 | 49 | 354 | 0.0 | 0.9 | 0.00 | 0.02 | 0.02 | 76 | 1014.5 |
| 20260508030021 | 49 | 354 | 0.0 | 0.9 | 0.00 | 0.02 | 0.02 | 75 | 1014.4 |
| 20260508025022 | 50 | 294 | 0.0 | 0.9 | 0.00 | 0.02 | 0.02 | 74 | 1014.3 |
| 20260508024521 | 50 | 248 | 0.0 | 0.0 | 0.00 | 0.02 | 0.02 | 73 | 1014.2 |
| 20260508024021 | 50 | 248 | 0.0 | 0.0 | 0.00 | 0.02 | 0.02 | 74 | 1014.2 |
| 20260508023022 | 51 | 248 | 0.0 | 0.0 | 0.00 | 0.04 | 0.02 | 73 | 1014.1 |
| 20260508022522 | 52 | 248 | 0.0 | 0.0 | 0.00 | 0.05 | 0.02 | 71 | 1014.1 |
| 20260508022021 | 52 | 248 | 0.0 | 0.0 | 0.00 | 0.05 | 0.02 | 69 | 1014.0 |
| 20260508021521 | 53 | 248 | 0.0 | 0.9 | 0.00 | 0.05 | 0.02 | 68 | 1013.9 |
| 20260508021021 | 53 | 248 | 0.0 | 0.0 | 0.00 | 0.06 | 0.02 | 67 | 1013.8 |
| 20260508020521 | 53 | 248 | 0.0 | 0.9 | 0.00 | 0.06 | 0.02 | 65 | 1013.7 |
| 20260508020021 | 53 | 248 | 0.0 | 0.9 | 0.00 | 0.06 | 0.02 | 66 | 1013.6 |
| 20260508015021 | 54 | 248 | 0.0 | 0.9 | 0.00 | 0.06 | 0.02 | 66 | 1013.4 |
| 20260508014521 | 54 | 198 | 0.0 | 0.9 | 0.00 | 0.06 | 0.02 | 65 | 1013.3 |
| 20260508014021 | 54 | 264 | 0.0 | 0.9 | 0.00 | 0.06 | 0.02 | 63 | 1013.2 |
| 20260508013021 | 55 | 117 | 0.0 | 0.0 | 0.00 | 0.06 | 0.02 | 61 | 1013.0 |
| 20260508012521 | 55 | 70 | 0.0 | 0.0 | 0.00 | 0.06 | 0.02 | 61 | 1012.9 |
| 20260508012021 | 55 | 70 | 0.0 | 0.9 | 0.00 | 0.06 | 0.02 | 60 | 1012.9 |
| 20260508011522 | 55 | 72 | 0.0 | 0.9 | 0.00 | 0.06 | 0.02 | 59 | 1012.8 |
| 20260508010521 | 56 | 72 | 0.0 | 1.7 | 0.00 | 0.06 | 0.02 | 60 | 1012.6 |
| 20260508010021 | 56 | 224 | 0.0 | 1.7 | 0.00 | 0.06 | 0.02 | 59 | 1012.6 |
| 20260508005520 | 56 | 184 | 0.0 | 0.9 | 0.00 | 0.06 | 0.02 | 58 | 1012.5 |
| 20260508005021 | 56 | 40 | 0.0 | 0.9 | 0.00 | 0.06 | 0.02 | 57 | 1012.4 |
| 20260508004522 | 57 | 262 | 0.0 | 0.0 | 0.00 | 0.06 | 0.02 | 57 | 1012.5 |
| 20260508004021 | 57 | 262 | 0.0 | 0.9 | 0.00 | 0.06 | 0.02 | 56 | 1012.5 |
| 20260508003522 | 57 | 245 | 0.0 | 0.9 | 0.00 | 0.06 | 0.02 | 57 | 1012.5 |
| 20260508003021 | 57 | 254 | 0.9 | 2.6 | 0.00 | 0.06 | 0.02 | 55 | 1012.5 |
| 20260508002021 | 58 | 221 | 0.0 | 2.6 | 0.00 | 0.06 | 0.02 | 56 | 1012.4 |
| 20260508001521 | 58 | 222 | 0.9 | 1.7 | 0.00 | 0.06 | 0.02 | 55 | 1012.4 |
| 20260508000520 | 59 | 223 | 0.9 | 5.2 | 0.00 | 0.06 | 0.02 | 53 | 1012.4 |
| 20260508000022 | 59 | 260 | 0.9 | 2.6 | 0.00 | 0.06 | 0.02 | 53 | 1012.3 |
| 20260507235522 | 59 | 183 | 1.7 | 5.2 | 0.00 | 0.06 | 0.02 | 53 | 1012.2 |
| 20260507234020 | 60 | 280 | 1.7 | 7.0 | 0.00 | 0.06 | 0.02 | 53 | 1012.0 |
| 20260507233521 | 60 | 253 | 1.7 | 4.3 | 0.00 | 0.06 | 0.02 | 54 | 1011.9 |
| 20260507233021 | 60 | 249 | 1.7 | 5.2 | 0.00 | 0.06 | 0.02 | 55 | 1011.8 |
| 20260507232520 | 61 | 219 | 0.9 | 1.7 | 0.00 | 0.06 | 0.02 | 55 | 1011.8 |
| 20260507232021 | 61 | 269 | 0.0 | 1.7 | 0.00 | 0.06 | 0.02 | 53 | 1011.7 |
| 20260507231522 | 62 | 302 | 0.9 | 2.6 | 0.00 | 0.06 | 0.02 | 53 | 1011.5 |
| 20260507231021 | 63 | 345 | 1.7 | 4.3 | 0.00 | 0.06 | 0.02 | 52 | 1011.5 |
| 20260507230521 | 63 | 273 | 0.9 | 4.3 | 0.00 | 0.06 | 0.02 | 52 | 1011.5 |
| 20260507230020 | 63 | 358 | 0.9 | 6.1 | 0.00 | 0.06 | 0.02 | 53 | 1011.4 |
| 20260507225521 | 63 | 249 | 0.9 | 2.6 | 0.00 | 0.06 | 0.02 | 53 | 1011.4 |
| 20260507225021 | 63 | 340 | 1.7 | 2.6 | 0.00 | 0.06 | 0.02 | 55 | 1011.3 |
| 20260507224520 | 62 | 235 | 0.0 | 0.0 | 0.00 | 0.06 | 0.02 | 57 | 1011.2 |
| 20260507224021 | 62 | 359 | 0.0 | 5.2 | 0.00 | 0.06 | 0.02 | 55 | 1011.2 |
| 20260507223521 | 63 | 269 | 1.7 | 6.1 | 0.00 | 0.06 | 0.02 | 55 | 1011.2 |
| 20260507223020 | 63 | 252 | 1.7 | 7.0 | 0.00 | 0.06 | 0.02 | 55 | 1011.0 |
| 20260507222020 | 64 | 283 | 1.7 | 4.3 | 0.00 | 0.06 | 0.02 | 52 | 1010.9 |
| 20260507221022 | 63 | 351 | 1.7 | 7.8 | 0.00 | 0.06 | 0.02 | 60 | 1010.8 |
| 20260507220520 | 62 | 287 | 0.0 | 2.6 | 0.00 | 0.06 | 0.02 | 63 | 1010.7 |
| 20260507220020 | 62 | 275 | 0.9 | 2.6 | 0.00 | 0.06 | 0.02 | 66 | 1010.7 |
| 20260507215521 | 61 | 225 | 0.0 | 1.7 | 0.00 | 0.06 | 0.02 | 66 | 1010.6 |
| 20260507215021 | 61 | 206 | 0.9 | 2.6 | 0.00 | 0.06 | 0.02 | 66 | 1010.6 |
| 20260507214520 | 61 | 234 | 0.9 | 2.6 | 0.00 | 0.06 | 0.02 | 68 | 1010.6 |
| 20260507214021 | 61 | 260 | 0.0 | 2.6 | 0.00 | 0.06 | 0.02 | 69 | 1010.6 |
| 20260507213521 | 61 | 231 | 0.9 | 6.1 | 0.00 | 0.06 | 0.02 | 67 | 1010.6 |
| 20260507213022 | 61 | 265 | 0.9 | 2.6 | 0.00 | 0.06 | 0.02 | 67 | 1010.7 |
| 20260507212521 | 61 | 243 | 0.9 | 2.6 | 0.00 | 0.06 | 0.02 | 67 | 1010.7 |
| 20260507212020 | 61 | 266 | 0.9 | 1.7 | 0.00 | 0.06 | 0.02 | 67 | 1010.7 |
| 20260507211021 | 61 | 245 | 0.9 | 2.6 | 0.00 | 0.06 | 0.02 | 68 | 1010.8 |
| 20260507210520 | 61 | 262 | 0.9 | 1.7 | 0.00 | 0.06 | 0.02 | 69 | 1010.7 |
| 20260507210020 | 61 | 271 | 0.9 | 4.3 | 0.00 | 0.06 | 0.02 | 69 | 1010.5 |
| 20260507205520 | 62 | 263 | 0.9 | 1.7 | 0.00 | 0.06 | 0.02 | 66 | 1010.6 |
| 20260507204520 | 64 | 221 | 1.7 | 6.1 | 0.00 | 0.06 | 0.02 | 64 | 1010.5 |
| 20260507204020 | 63 | 235 | 2.6 | 5.2 | 0.00 | 0.06 | 0.02 | 63 | 1010.4 |
| 20260507203521 | 63 | 234 | 2.6 | 7.8 | 0.00 | 0.06 | 0.02 | 65 | 1010.4 |
| 20260507202520 | 63 | 127 | 1.7 | 5.2 | 0.00 | 0.06 | 0.02 | 65 | 1010.4 |
| 20260507202021 | 63 | 257 | 1.7 | 2.6 | 0.00 | 0.06 | 0.02 | 67 | 1010.4 |
| 20260507201520 | 62 | 229 | 0.9 | 2.6 | 0.00 | 0.06 | 0.02 | 69 | 1010.4 |
| 20260507200520 | 60 | 233 | 0.9 | 4.3 | 0.00 | 0.06 | 0.02 | 71 | 1010.7 |
| 20260507200021 | 60 | 245 | 1.7 | 2.6 | 0.00 | 0.06 | 0.02 | 70 | 1010.9 |
| 20260507195521 | 59 | 158 | 0.0 | 2.6 | 0.00 | 0.06 | 0.02 | 76 | 1011.0 |
| 20260507195020 | 58 | 245 | 1.7 | 2.6 | 0.00 | 0.06 | 0.02 | 72 | 1011.1 |
| 20260507194520 | 58 | 133 | 0.0 | 0.9 | 0.00 | 0.06 | 0.02 | 76 | 1011.3 |
| 20260507194020 | 58 | 244 | 0.0 | 0.9 | 0.00 | 0.06 | 0.02 | 75 | 1011.4 |
| 20260507193521 | 58 | 245 | 0.0 | 0.9 | 0.00 | 0.06 | 0.02 | 77 | 1011.5 |
| 20260507193020 | 58 | 152 | 0.9 | 0.9 | 0.00 | 0.06 | 0.02 | 78 | 1011.7 |
| 20260507192520 | 57 | 214 | 0.0 | 0.0 | 0.00 | 0.06 | 0.02 | 82 | 1011.7 |
| 20260507192020 | 57 | 214 | 0.0 | 0.9 | 0.00 | 0.06 | 0.02 | 81 | 1011.6 |
| 20260507191521 | 58 | 214 | 0.0 | 0.9 | 0.00 | 0.06 | 0.02 | 81 | 1011.8 |
| 20260507190521 | 57 | 243 | 0.0 | 0.9 | 0.00 | 0.06 | 0.02 | 84 | 1011.7 |
| 20260507190020 | 57 | 247 | 0.0 | 0.0 | 0.00 | 0.06 | 0.02 | 82 | 1011.7 |
| 20260507185520 | 57 | 247 | 0.0 | 0.9 | 0.00 | 0.06 | 0.02 | 82 | 1011.9 |
| 20260507185020 | 57 | 257 | 0.9 | 1.7 | 0.00 | 0.06 | 0.02 | 82 | 1012.0 |
| 20260507184522 | 57 | 262 | 0.0 | 0.9 | 0.00 | 0.06 | 0.02 | 81 | 1011.9 |
| 20260507184020 | 57 | 259 | 0.0 | 1.7 | 0.00 | 0.06 | 0.02 | 82 | 1012.0 |
| 20260507183521 | 57 | 224 | 0.0 | 1.7 | 0.00 | 0.06 | 0.02 | 84 | 1012.0 |
| 20260507183020 | 56 | 231 | 0.0 | 0.0 | 0.00 | 0.06 | 0.02 | 84 | 1012.1 |
| 20260507182021 | 56 | 231 | 0.0 | 0.0 | 0.00 | 0.06 | 0.02 | 86 | 1012.1 |
| 20260507181520 | 56 | 231 | 0.0 | 0.0 | 0.00 | 0.06 | 0.02 | 88 | 1011.9 |
| 20260507181020 | 55 | 231 | 0.0 | 0.0 | 0.00 | 0.06 | 0.02 | 86 | 1011.9 |
| 20260507180520 | 55 | 231 | 0.0 | 0.0 | 0.01 | 0.06 | 0.02 | 88 | 1012.1 |
| 20260507180020 | 55 | 231 | 0.0 | 0.0 | 0.01 | 0.06 | 0.02 | 87 | 1012.1 |
| 20260507175520 | 55 | 231 | 0.0 | 0.0 | 0.01 | 0.06 | 0.02 | 88 | 1012.0 |
| 20260507175019 | 55 | 231 | 0.0 | 0.0 | 0.01 | 0.06 | 0.02 | 88 | 1012.1 |
| 20260507174520 | 55 | 345 | 0.0 | 0.0 | 0.01 | 0.06 | 0.02 | 89 | 1012.1 |
| 20260507174020 | 55 | 8 | 0.0 | 0.0 | 0.01 | 0.06 | 0.02 | 88 | 1012.0 |
| 20260507173519 | 55 | 8 | 0.0 | 0.0 | 0.01 | 0.06 | 0.02 | 88 | 1012.1 |
| 20260507173020 | 55 | 8 | 0.0 | 0.0 | 0.01 | 0.06 | 0.02 | 88 | 1012.2 |
| 20260507171519 | 56 | 8 | 0.0 | 0.0 | 0.01 | 0.06 | 0.02 | 85 | 1012.0 |
| 20260507171020 | 56 | 12 | 0.0 | 0.9 | 0.01 | 0.06 | 0.02 | 81 | 1012.1 |
| 20260507170520 | 57 | 129 | 0.0 | 0.9 | 0.00 | 0.05 | 0.01 | 80 | 1012.4 |
| 20260507170020 | 57 | 95 | 0.0 | 0.9 | 0.00 | 0.06 | 0.01 | 81 | 1012.3 |
| 20260507165520 | 57 | 97 | 0.0 | 1.7 | 0.00 | 0.06 | 0.01 | 81 | 1012.2 |
| 20260507165020 | 57 | 332 | 0.0 | 0.9 | 0.00 | 0.06 | 0.01 | 81 | 1012.2 |
| 20260507164019 | 57 | 218 | 0.9 | 2.6 | 0.00 | 0.06 | 0.01 | 80 | 1012.1 |
| 20260507163520 | 57 | 45 | 0.0 | 0.9 | 0.00 | 0.07 | 0.01 | 80 | 1012.1 |
| 20260507163019 | 57 | 45 | 0.0 | 0.9 | 0.00 | 0.07 | 0.01 | 79 | 1012.2 |
| 20260507162520 | 57 | 12 | 0.0 | 0.0 | 0.00 | 0.07 | 0.01 | 81 | 1012.1 |
| 20260507162019 | 58 | 11 | 0.0 | 0.0 | 0.00 | 0.07 | 0.01 | 81 | 1012.0 |
| 20260507161520 | 58 | 9 | 0.0 | 0.9 | 0.00 | 0.07 | 0.01 | 80 | 1012.0 |
| 20260507161019 | 58 | 311 | 0.0 | 0.0 | 0.00 | 0.07 | 0.01 | 81 | 1012.1 |
| 20260507160521 | 58 | 311 | 0.0 | 2.6 | 0.00 | 0.07 | 0.01 | 81 | 1012.2 |
| 20260507160021 | 58 | 342 | 0.0 | 0.9 | 0.00 | 0.07 | 0.01 | 80 | 1012.2 |
| 20260507155519 | 58 | 342 | 0.0 | 0.9 | 0.00 | 0.07 | 0.01 | 81 | 1012.3 |
| 20260507154519 | 58 | 218 | 0.0 | 0.9 | 0.00 | 0.07 | 0.01 | 80 | 1012.4 |
| 20260507154021 | 58 | 341 | 0.0 | 0.9 | 0.00 | 0.07 | 0.01 | 81 | 1012.6 |
| 20260507153020 | 58 | 176 | 0.0 | 0.0 | 0.00 | 0.07 | 0.01 | 82 | 1012.5 |
| 20260507152520 | 58 | 165 | 0.0 | 0.0 | 0.00 | 0.07 | 0.01 | 81 | 1012.5 |
| 20260507152019 | 58 | 140 | 0.0 | 0.9 | 0.00 | 0.07 | 0.01 | 82 | 1012.5 |
| 20260507151520 | 58 | 106 | 0.0 | 0.9 | 0.00 | 0.07 | 0.01 | 82 | 1012.5 |
| 20260507151019 | 58 | 111 | 0.9 | 1.7 | 0.00 | 0.07 | 0.01 | 81 | 1012.4 |
| 20260507150520 | 58 | 171 | 0.0 | 0.0 | 0.00 | 0.07 | 0.01 | 82 | 1012.4 |
| 20260507150019 | 58 | 171 | 0.0 | 0.9 | 0.00 | 0.07 | 0.01 | 82 | 1012.3 |
| 20260507145520 | 58 | 4 | 0.0 | 0.9 | 0.00 | 0.07 | 0.01 | 82 | 1012.2 |
| 20260507145019 | 58 | 3 | 0.0 | 0.9 | 0.00 | 0.07 | 0.01 | 82 | 1012.2 |
| 20260507144520 | 58 | 3 | 0.0 | 0.9 | 0.00 | 0.07 | 0.01 | 82 | 1012.3 |
| 20260507143520 | 58 | 2 | 0.0 | 1.7 | 0.00 | 0.07 | 0.01 | 82 | 1012.2 |
| 20260507142520 | 59 | 356 | 0.0 | 0.0 | 0.00 | 0.07 | 0.01 | 82 | 1012.0 |
| 20260507142019 | 59 | 351 | 0.0 | 0.0 | 0.00 | 0.07 | 0.01 | 82 | 1012.1 |
| 20260507141520 | 59 | 352 | 0.0 | 0.9 | 0.00 | 0.07 | 0.01 | 83 | 1012.1 |
| 20260507140519 | 59 | 286 | 0.9 | 2.6 | 0.00 | 0.07 | 0.01 | 83 | 1012.2 |
| 20260507140019 | 59 | 235 | 0.0 | 0.9 | 0.00 | 0.07 | 0.01 | 84 | 1011.9 |
| 20260507135519 | 59 | 59 | 0.9 | 1.7 | 0.00 | 0.07 | 0.01 | 85 | 1011.7 |
| 20260507135019 | 59 | 41 | 0.0 | 0.0 | 0.00 | 0.08 | 0.01 | 86 | 1011.9 |
| 20260507134020 | 59 | 47 | 0.0 | 0.0 | 0.00 | 0.08 | 0.01 | 85 | 1012.6 |
| 20260507133519 | 59 | 17 | 0.0 | 0.0 | 0.00 | 0.09 | 0.01 | 85 | 1012.5 |
| 20260507133021 | 59 | 29 | 0.0 | 1.7 | 0.00 | 0.09 | 0.01 | 85 | 1012.4 |
| 20260507132519 | 59 | 76 | 0.0 | 0.9 | 0.00 | 0.09 | 0.01 | 85 | 1012.3 |
| 20260507132019 | 58 | 136 | 0.0 | 0.9 | 0.00 | 0.09 | 0.01 | 86 | 1012.4 |
| 20260507131519 | 59 | 147 | 0.0 | 0.0 | 0.00 | 0.09 | 0.01 | 85 | 1012.4 |
| 20260507131020 | 59 | 179 | 0.0 | 0.0 | 0.00 | 0.09 | 0.01 | 86 | 1012.6 |
| 20260507130519 | 59 | 150 | 0.0 | 0.0 | 0.00 | 0.09 | 0.01 | 86 | 1012.7 |
| 20260507130019 | 59 | 131 | 0.0 | 0.9 | 0.00 | 0.09 | 0.01 | 86 | 1012.4 |
| 20260507125519 | 59 | 143 | 0.0 | 0.0 | 0.00 | 0.10 | 0.01 | 85 | 1012.3 |
| 20260507125019 | 59 | 143 | 0.0 | 0.0 | 0.00 | 0.10 | 0.01 | 87 | 1012.2 |
| 20260507124519 | 59 | 142 | 0.0 | 0.0 | 0.00 | 0.10 | 0.01 | 87 | 1012.4 |
| 20260507124019 | 58 | 195 | 0.0 | 0.0 | 0.00 | 0.10 | 0.01 | 87 | 1012.4 |
| 20260507123519 | 58 | 195 | 0.0 | 0.0 | 0.00 | 0.10 | 0.01 | 88 | 1012.4 |
| 20260507122519 | 58 | 263 | 0.0 | 1.7 | 0.00 | 0.10 | 0.01 | 89 | 1012.5 |
| 20260507122019 | 58 | 27 | 0.0 | 0.0 | 0.00 | 0.10 | 0.01 | 89 | 1012.4 |
| 20260507121518 | 58 | 27 | 0.0 | 0.0 | 0.00 | 0.10 | 0.01 | 89 | 1012.4 |
| 20260507121019 | 58 | 27 | 0.0 | 0.0 | 0.00 | 0.10 | 0.01 | 90 | 1012.2 |
| 20260507120519 | 58 | 39 | 0.0 | 0.0 | 0.00 | 0.10 | 0.01 | 89 | 1012.2 |
| 20260507120019 | 58 | 317 | 0.0 | 0.0 | 0.00 | 0.10 | 0.01 | 91 | 1012.4 |
| 20260507115520 | 58 | 319 | 0.0 | 0.0 | 0.00 | 0.10 | 0.01 | 91 | 1012.3 |
| 20260507115020 | 58 | 319 | 0.0 | 0.0 | 0.00 | 0.10 | 0.01 | 90 | 1012.2 |
| 20260507114519 | 58 | 319 | 0.0 | 0.0 | 0.00 | 0.10 | 0.01 | 91 | 1012.2 |
| 20260507113519 | 58 | 263 | 0.0 | 0.0 | 0.00 | 0.10 | 0.01 | 92 | 1012.2 |
| 20260507113019 | 58 | 263 | 0.0 | 0.0 | 0.00 | 0.10 | 0.01 | 92 | 1012.0 |
| 20260507112518 | 58 | 263 | 0.0 | 0.0 | 0.00 | 0.10 | 0.01 | 92 | 1011.9 |
| 20260507112019 | 58 | 263 | 0.0 | 0.0 | 0.00 | 0.10 | 0.01 | 91 | 1011.8 |
| 20260507111518 | 58 | 263 | 0.0 | 0.0 | 0.00 | 0.10 | 0.01 | 91 | 1012.0 |
| 20260507111019 | 58 | 263 | 0.0 | 0.0 | 0.00 | 0.10 | 0.01 | 91 | 1011.8 |
| 20260507110519 | 58 | 263 | 0.0 | 0.0 | 0.00 | 0.10 | 0.01 | 92 | 1011.6 |
| 20260507110019 | 58 | 263 | 0.0 | 0.0 | 0.00 | 0.10 | 0.01 | 92 | 1011.7 |
| 20260507105518 | 58 | 263 | 0.0 | 0.0 | 0.00 | 0.10 | 0.01 | 92 | 1011.8 |
| 20260507105020 | 58 | 101 | 0.0 | 0.0 | 0.00 | 0.10 | 0.01 | 92 | 1011.6 |
| 20260507104518 | 58 | 101 | 0.0 | 0.0 | 0.00 | 0.10 | 0.01 | 92 | 1011.8 |
| 20260507104019 | 58 | 101 | 0.0 | 0.9 | 0.00 | 0.10 | 0.01 | 91 | 1011.6 |
| 20260507103520 | 58 | 241 | 0.0 | 0.0 | 0.00 | 0.10 | 0.01 | 92 | 1011.4 |
| 20260507103018 | 58 | 241 | 0.0 | 0.0 | 0.00 | 0.10 | 0.01 | 92 | 1011.4 |
| 20260507102519 | 58 | 241 | 0.0 | 0.0 | 0.00 | 0.10 | 0.01 | 92 | 1011.5 |
| 20260507102019 | 58 | 241 | 0.0 | 0.0 | 0.00 | 0.10 | 0.01 | 92 | 1011.3 |
| 20260507101518 | 58 | 241 | 0.0 | 0.0 | 0.00 | 0.10 | 0.01 | 91 | 1011.7 |
| 20260507101020 | 58 | 241 | 0.0 | 0.0 | 0.00 | 0.10 | 0.01 | 91 | 1011.5 |
| 20260507095518 | 58 | 241 | 0.0 | 0.0 | 0.00 | 0.10 | 0.01 | 92 | 1011.3 |
| 20260507095019 | 59 | 241 | 0.0 | 0.0 | 0.00 | 0.10 | 0.01 | 92 | 1011.4 |
| 20260507094518 | 59 | 241 | 0.0 | 0.0 | 0.00 | 0.10 | 0.01 | 93 | 1011.7 |
| 20260507094019 | 59 | 241 | 0.0 | 0.0 | 0.00 | 0.10 | 0.01 | 93 | 1011.6 |
| 20260507093519 | 59 | 229 | 0.0 | 0.0 | 0.00 | 0.10 | 0.01 | 93 | 1011.2 |
| 20260507093018 | 59 | 229 | 0.0 | 0.0 | 0.00 | 0.10 | 0.01 | 93 | 1011.4 |
| 20260507092519 | 59 | 229 | 0.0 | 0.0 | 0.00 | 0.10 | 0.01 | 94 | 1011.6 |
| 20260507092018 | 60 | 229 | 0.0 | 0.9 | 0.00 | 0.10 | 0.01 | 95 | 1011.7 |
| 20260507091020 | 60 | 229 | 0.0 | 0.0 | 0.00 | 0.10 | 0.01 | 95 | 1011.4 |
| 20260507090020 | 60 | 229 | 0.0 | 0.0 | 0.00 | 0.10 | 0.01 | 96 | 1010.8 |
| 20260507085518 | 60 | 229 | 0.0 | 0.9 | 0.00 | 0.10 | 0.01 | 96 | 1010.7 |
| 20260507085019 | 60 | 229 | 0.0 | 0.0 | 0.00 | 0.10 | 0.01 | 96 | 1011.2 |
| 20260507084518 | 60 | 229 | 0.0 | 0.0 | 0.00 | 0.10 | 0.01 | 96 | 1011.0 |
| 20260507083519 | 60 | 229 | 0.0 | 0.9 | 0.00 | 0.10 | 0.01 | 96 | 1011.3 |
| 20260507083018 | 60 | 229 | 0.0 | 0.9 | 0.00 | 0.10 | 0.01 | 96 | 1011.6 |
| 20260507082519 | 60 | 229 | 0.0 | 0.9 | 0.00 | 0.10 | 0.01 | 95 | 1011.4 |
| 20260507082018 | 60 | 229 | 0.9 | 0.9 | 0.00 | 0.10 | 0.01 | 96 | 1011.2 |
| 20260507081519 | 60 | 229 | 0.0 | 0.9 | 0.00 | 0.10 | 0.01 | 95 | 1011.3 |
| 20260507080518 | 61 | 216 | 0.0 | 0.0 | 0.00 | 0.10 | 0.01 | 97 | 1011.2 |
| 20260507080019 | 61 | 216 | 0.0 | 0.0 | 0.00 | 0.10 | 0.01 | 97 | 1011.5 |
| 20260507075518 | 61 | 184 | 0.0 | 0.0 | 0.00 | 0.10 | 0.01 | 96 | 1011.4 |
| 20260507075019 | 61 | 184 | 0.0 | 0.0 | 0.00 | 0.10 | 0.01 | 96 | 1011.4 |
| 20260507074518 | 61 | 184 | 0.0 | 0.0 | 0.00 | 0.10 | 0.01 | 96 | 1011.5 |
| 20260507073519 | 61 | 184 | 0.0 | 0.0 | 0.00 | 0.10 | 0.01 | 96 | 1011.5 |
| 20260507073018 | 61 | 184 | 0.0 | 0.0 | 0.00 | 0.10 | 0.01 | 96 | 1011.5 |
| 20260507072520 | 61 | 184 | 0.0 | 0.0 | 0.00 | 0.10 | 0.01 | 97 | 1011.8 |
| 20260507072018 | 61 | 184 | 0.0 | 0.0 | 0.00 | 0.10 | 0.01 | 96 | 1011.5 |
| 20260507071519 | 61 | 184 | 0.0 | 0.0 | 0.00 | 0.10 | 0.01 | 97 | 1011.5 |
| 20260507071018 | 61 | 184 | 0.0 | 0.0 | 0.00 | 0.10 | 0.01 | 97 | 1011.2 |
| 20260507070518 | 61 | 184 | 0.0 | 0.0 | 0.00 | 0.10 | 0.01 | 97 | 1011.3 |
| 20260507070019 | 61 | 184 | 0.0 | 0.0 | 0.00 | 0.10 | 0.01 | 96 | 1011.3 |
| 20260507065018 | 61 | 168 | 0.0 | 0.0 | 0.00 | 0.10 | 0.01 | 96 | 1011.0 |
| 20260507064518 | 61 | 168 | 0.0 | 0.0 | 0.00 | 0.10 | 0.01 | 96 | 1011.0 |
| 20260507064018 | 61 | 168 | 0.0 | 0.0 | 0.00 | 0.10 | 0.01 | 96 | 1011.1 |
| 20260507063519 | 61 | 168 | 0.0 | 0.0 | 0.01 | 0.10 | 0.01 | 96 | 1011.5 |